Location: ?kun?ru
(16.3916°N, 80.8194°E)
Time: 13:56:56
(UTC+00:00)

GPS 2-17 Rocket1 - Pass Details

Date: 19 May 2025
Orbit: 549 x 622 km, 20.3° (Epoch: 17 June)

Event Time Altitude Azimuth Distance (km) Brightness Sun altitude
Exits shadow 23:10:15 17° 217° (SW) 1,461 4.4 -12.9°
Maximum altitude 23:11:07 17° 201° (SSW) 1,421 4.5 -12.7°
Drops below altitude 10° 23:14:00 10° 159° (SSE) 1,849 5.5 -12.1°
Sets 23:16:57 0° 139° (SE) 2,762 6.6 -11.4°
